Time,TemperatureF,DewpointF,PressureIn,WindDirection,WindDirectionDegrees,WindSpeedMPH,WindSpeedGustMPH,Humidity,HourlyPrecipIn,Conditions,Clouds,dailyrainin,SoftwareType,DateUTC
2013-06-11 00:06:00,71.8,66.0,29.91,SSW,203,0.0,1.0,82,0.00,,,0.00,weatherlink.com 1.10,2013-06-11 05:06:00,
2013-06-11 00:21:00,71.1,65.0,29.91,SSW,203,0.0,1.0,82,0.00,,,0.00,weatherlink.com 1.10,2013-06-11 05:21:00,
2013-06-11 00:36:00,70.2,66.0,29.91,SSW,203,0.0,1.0,85,0.00,,,0.00,weatherlink.com 1.10,2013-06-11 05:36:00,
2013-06-11 00:51:00,69.6,65.0,29.91,SW,219,0.0,1.0,86,0.00,,,0.00,weatherlink.com 1.10,2013-06-11 05:51:00,
2013-06-11 01:06:00,69.2,65.0,29.91,SW,219,0.0,1.0,87,0.00,,,0.00,weatherlink.com 1.10,2013-06-11 06:06:00,
2013-06-11 01:21:00,68.7,65.0,29.91,SW,219,0.0,0.0,88,0.00,,,0.00,weatherlink.com 1.10,2013-06-11 06:21:00,
2013-06-11 01:36:00,68.4,65.0,29.91,SW,219,0.0,0.0,88,0.00,,,0.00,weatherlink.com 1.10,2013-06-11 06:36:00,
2013-06-11 01:51:00,68.0,65.0,29.91,SW,219,0.0,0.0,89,0.00,,,0.00,weatherlink.com 1.10,2013-06-11 06:51:00,
2013-06-11 02:06:00,67.9,65.0,29.91,SW,219,0.0,0.0,90,0.00,,,0.00,weatherlink.com 1.10,2013-06-11 07:06:00,
2013-06-11 02:21:00,68.1,65.0,29.91,SW,219,0.0,0.0,90,0.00,,,0.00,weatherlink.com 1.10,2013-06-11 07:21:00,
2013-06-11 02:36:00,68.8,66.0,29.91,SW,219,0.0,1.0,90,0.00,,,0.00,weatherlink.com 1.10,2013-06-11 07:36:00,
2013-06-11 02:51:00,69.4,66.0,29.91,SW,219,0.0,1.0,89,0.00,,,0.00,weatherlink.com 1.10,2013-06-11 07:51:00,
2013-06-11 03:06:00,70.7,68.0,29.91,SSW,212,0.0,1.0,90,0.00,,,0.00,weatherlink.com 1.10,2013-06-11 08:06:00,
2013-06-11 03:21:00,72.4,69.0,29.91,SSE,152,2.0,3.0,90,0.00,,,0.00,weatherlink.com 1.10,2013-06-11 08:21:00,
2013-06-11 03:36:00,73.2,70.0,29.91,SSW,194,2.0,4.0,89,0.00,,,0.00,weatherlink.com 1.10,2013-06-11 08:36:00,
2013-06-11 03:52:00,73.3,70.0,29.90,South,190,2.0,7.0,89,0.00,,,0.00,weatherlink.com 1.10,2013-06-11 08:52:00,
2013-06-11 04:07:00,73.1,70.0,29.90,SW,215,3.0,6.0,89,0.00,,,0.00,weatherlink.com 1.10,2013-06-11 09:07:00,
2013-06-11 04:22:00,72.6,70.0,29.90,SSW,211,3.0,4.0,90,0.00,,,0.00,weatherlink.com 1.10,2013-06-11 09:22:00,
2013-06-11 04:37:00,72.0,69.0,29.90,South,181,2.0,4.0,91,0.00,,,0.00,weatherlink.com 1.10,2013-06-11 09:37:00,
2013-06-11 04:52:00,71.5,69.0,29.90,SSW,201,1.0,3.0,92,0.00,,,0.00,weatherlink.com 1.10,2013-06-11 09:52:00,
2013-06-11 05:07:00,71.3,69.0,29.91,South,169,0.0,2.0,93,0.00,,,0.00,weatherlink.com 1.10,2013-06-11 10:07:00,
2013-06-11 05:22:00,71.1,69.0,29.91,SSW,203,1.0,51.0,93,0.00,,,0.00,weatherlink.com 1.10,2013-06-11 10:22:00,
2013-06-11 05:37:00,71.0,69.0,29.91,SSW,211,0.0,40.0,93,0.00,,,0.00,weatherlink.com 1.10,2013-06-11 10:37:00,
2013-06-11 05:52:00,71.1,69.0,29.91,SSW,208,1.0,99.0,93,0.00,,,0.00,weatherlink.com 1.10,2013-06-11 10:52:00,
2013-06-11 06:07:00,71.1,69.0,29.91,SSW,194,1.0,3.0,94,0.00,,,0.00,weatherlink.com 1.10,2013-06-11 11:07:00,
2013-06-11 06:22:00,70.9,69.0,29.92,SSW,213,1.0,3.0,94,0.00,,,0.00,weatherlink.com 1.10,2013-06-11 11:22:00,
2013-06-11 06:37:00,70.7,69.0,29.92,SSW,193,1.0,3.0,94,0.00,,,0.00,weatherlink.com 1.10,2013-06-11 11:37:00,
2013-06-11 06:52:00,70.8,69.0,29.92,SSW,193,1.0,4.0,95,0.00,,,0.00,weatherlink.com 1.10,2013-06-11 11:52:00,
2013-06-11 07:07:00,71.2,70.0,29.92,SW,224,0.0,3.0,95,0.00,,,0.00,weatherlink.com 1.10,2013-06-11 12:07:00,
2013-06-11 07:22:00,71.8,70.0,29.92,SW,224,2.0,63.0,94,0.00,,,0.00,weatherlink.com 1.10,2013-06-11 12:22:00,
2013-06-11 07:37:00,72.2,70.0,29.93,SSW,200,3.0,4.0,92,0.00,,,0.00,weatherlink.com 1.10,2013-06-11 12:37:00,
2013-06-11 07:52:00,72.2,70.0,29.93,WSW,240,2.0,6.0,92,0.00,,,0.00,weatherlink.com 1.10,2013-06-11 12:52:00,
2013-06-11 08:07:00,72.2,70.0,29.94,SW,217,0.0,5.0,91,0.00,,,0.00,weatherlink.com 1.10,2013-06-11 13:07:00,
2013-06-11 08:22:00,73.7,70.0,29.95,SW,225,1.0,6.0,88,0.00,,,0.00,weatherlink.com 1.10,2013-06-11 13:22:00,
2013-06-11 08:37:00,75.1,70.0,29.95,SW,214,3.0,11.0,83,0.00,,,0.00,weatherlink.com 1.10,2013-06-11 13:37:00,
2013-06-11 08:52:00,76.6,71.0,29.95,SW,222,3.0,7.0,82,0.00,,,0.00,weatherlink.com 1.10,2013-06-11 13:52:00,
2013-06-11 09:07:00,78.1,70.0,29.95,WSW,239,5.0,8.0,76,0.00,,,0.00,weatherlink.com 1.10,2013-06-11 14:07:00,
2013-06-11 09:22:00,77.8,70.0,29.95,SSW,193,5.0,6.0,77,0.00,,,0.00,weatherlink.com 1.10,2013-06-11 14:22:00,
2013-06-11 09:37:00,77.8,70.0,29.96,SSW,204,5.0,6.0,77,0.00,,,0.00,weatherlink.com 1.10,2013-06-11 14:37:00,
2013-06-11 09:52:00,77.7,69.0,29.96,SSE,160,4.0,7.0,75,0.00,,,0.00,weatherlink.com 1.10,2013-06-11 14:52:00,
2013-06-11 10:07:00,79.5,69.0,29.96,SSE,166,4.0,7.0,71,0.00,,,0.00,weatherlink.com 1.10,2013-06-11 15:07:00,
2013-06-11 10:22:00,81.7,69.0,29.95,ENE,60,0.0,6.0,65,0.00,,,0.00,weatherlink.com 1.10,2013-06-11 15:22:00,
2013-06-11 10:37:00,83.6,70.0,29.95,SW,221,0.0,0.0,64,0.00,,,0.00,weatherlink.com 1.10,2013-06-11 15:37:00,
2013-06-11 10:52:00,83.7,69.0,29.95,SW,233,0.0,0.0,62,0.00,,,0.00,weatherlink.com 1.10,2013-06-11 15:52:00,
2013-06-11 11:08:00,82.1,68.0,29.95,SW,229,0.0,0.0,63,0.00,,,0.00,weatherlink.com 1.10,2013-06-11 16:08:00,
2013-06-11 11:22:00,83.0,69.0,29.95,SE,143,0.0,0.0,62,0.00,,,0.00,weatherlink.com 1.10,2013-06-11 16:22:00,
2013-06-11 11:38:00,85.2,69.0,29.95,SSE,162,0.0,0.0,59,0.00,,,0.00,weatherlink.com 1.10,2013-06-11 16:38:00,
2013-06-11 11:53:00,85.7,68.0,29.95,WSW,248,0.0,0.0,56,0.00,,,0.00,weatherlink.com 1.10,2013-06-11 16:53:00,
2013-06-11 12:08:00,86.2,69.0,29.95,South,186,0.0,0.0,56,0.00,,,0.00,weatherlink.com 1.10,2013-06-11 17:08:00,
2013-06-11 12:23:00,85.9,68.0,29.95,SE,129,0.0,0.0,55,0.00,,,0.00,weatherlink.com 1.10,2013-06-11 17:23:00,
2013-06-11 12:38:00,86.6,67.0,29.95,SW,221,0.0,0.0,53,0.00,,,0.00,weatherlink.com 1.10,2013-06-11 17:38:00,
2013-06-11 12:53:00,87.8,68.0,29.95,SSE,152,0.0,0.0,52,0.00,,,0.00,weatherlink.com 1.10,2013-06-11 17:53:00,
2013-06-11 13:08:00,87.9,68.0,29.94,ESE,114,0.0,0.0,52,0.00,,,0.00,weatherlink.com 1.10,2013-06-11 18:08:00,
2013-06-11 13:23:00,89.3,69.0,29.94,South,174,0.0,0.0,51,0.00,,,0.00,weatherlink.com 1.10,2013-06-11 18:23:00,
2013-06-11 13:38:00,89.2,68.0,29.94,SW,217,0.0,0.0,49,0.00,,,0.00,weatherlink.com 1.10,2013-06-11 18:38:00,
2013-06-11 13:53:00,88.7,68.0,29.93,SSW,204,0.0,0.0,50,0.00,,,0.00,weatherlink.com 1.10,2013-06-11 18:53:00,
2013-06-11 14:08:00,89.3,67.0,29.92,SSW,211,0.0,0.0,48,0.00,,,0.00,weatherlink.com 1.10,2013-06-11 19:08:00,
2013-06-11 14:23:00,88.8,67.0,29.92,SSE,154,0.0,0.0,49,0.00,,,0.00,weatherlink.com 1.10,2013-06-11 19:23:00,
2013-06-11 14:38:00,89.3,68.0,29.91,SE,136,0.0,0.0,49,0.00,,,0.00,weatherlink.com 1.10,2013-06-11 19:38:00,
2013-06-11 14:53:00,90.1,68.0,29.91,South,184,0.0,0.0,48,0.00,,,0.00,weatherlink.com 1.10,2013-06-11 19:53:00,
2013-06-11 15:08:00,90.3,67.0,29.91,SW,221,0.0,0.0,47,0.00,,,0.00,weatherlink.com 1.10,2013-06-11 20:08:00,
2013-06-11 15:23:00,91.5,67.0,29.91,South,191,0.0,0.0,45,0.00,,,0.00,weatherlink.com 1.10,2013-06-11 20:23:00,
2013-06-11 15:38:00,89.6,68.0,29.90,SE,146,0.0,0.0,49,0.00,,,0.00,weatherlink.com 1.10,2013-06-11 20:38:00,
2013-06-11 15:53:00,89.3,67.0,29.89,SW,229,0.0,0.0,48,0.00,,,0.00,weatherlink.com 1.10,2013-06-11 20:53:00,
2013-06-11 16:08:00,90.5,68.0,29.89,SE,146,0.0,0.0,47,0.00,,,0.00,weatherlink.com 1.10,2013-06-11 21:08:00,
2013-06-11 16:23:00,90.3,68.0,29.89,ENE,70,0.0,0.0,48,0.00,,,0.00,weatherlink.com 1.10,2013-06-11 21:23:00,
2013-06-11 16:38:00,89.7,69.0,29.90,SSW,193,0.0,0.0,50,0.00,,,0.00,weatherlink.com 1.10,2013-06-11 21:38:00,
2013-06-11 16:53:00,89.8,68.0,29.90,SSW,205,0.0,0.0,49,0.00,,,0.00,weatherlink.com 1.10,2013-06-11 21:53:00,
2013-06-11 17:08:00,89.8,69.0,29.90,SE,142,0.0,0.0,50,0.00,,,0.00,weatherlink.com 1.10,2013-06-11 22:08:00,
2013-06-11 17:23:00,89.9,68.0,29.90,SSE,166,0.0,0.0,48,0.00,,,0.00,weatherlink.com 1.10,2013-06-11 22:23:00,
2013-06-11 17:38:00,88.4,67.0,29.90,SSE,165,0.0,0.0,49,0.00,,,0.00,weatherlink.com 1.10,2013-06-11 22:38:00,
2013-06-11 17:53:00,84.0,67.0,29.91,SSW,205,0.0,0.0,57,0.00,,,0.00,weatherlink.com 1.10,2013-06-11 22:53:00,
2013-06-11 18:08:00,82.7,69.0,29.91,SE,136,0.0,0.0,63,0.00,,,0.00,weatherlink.com 1.10,2013-06-11 23:08:00,
2013-06-11 18:23:00,83.6,69.0,29.90,SSW,203,0.0,0.0,62,0.00,,,0.00,weatherlink.com 1.10,2013-06-11 23:23:00,
2013-06-11 18:38:00,82.8,68.0,29.90,SSW,201,0.0,0.0,61,0.00,,,0.00,weatherlink.com 1.10,2013-06-11 23:38:00,
2013-06-11 18:53:00,81.5,68.0,29.89,SW,235,0.0,0.0,64,0.00,,,0.00,weatherlink.com 1.10,2013-06-11 23:53:00,
2013-06-11 19:08:00,81.9,69.0,29.89,SSW,192,0.0,0.0,66,0.00,,,0.00,weatherlink.com 1.10,2013-06-12 00:08:00,
2013-06-11 19:23:00,81.5,70.0,29.89,SSW,211,0.0,0.0,67,0.00,,,0.00,weatherlink.com 1.10,2013-06-12 00:23:00,
2013-06-11 19:38:00,80.0,69.0,29.90,SW,214,0.0,0.0,70,0.00,,,0.00,weatherlink.com 1.10,2013-06-12 00:38:00,
2013-06-11 19:53:00,78.5,69.0,29.90,SSW,201,0.0,0.0,72,0.00,,,0.00,weatherlink.com 1.10,2013-06-12 00:53:00,
2013-06-11 20:08:00,77.8,68.0,29.90,West,260,1.0,4.0,71,0.00,,,0.00,weatherlink.com 1.10,2013-06-12 01:08:00,
2013-06-11 20:23:00,77.2,69.0,29.90,SSW,197,3.0,8.0,75,0.00,,,0.00,weatherlink.com 1.10,2013-06-12 01:23:00,
2013-06-11 20:38:00,76.5,69.0,29.90,SW,219,3.0,10.0,78,0.00,,,0.00,weatherlink.com 1.10,2013-06-12 01:38:00,
2013-06-11 20:53:00,75.9,69.0,29.91,SSW,209,1.0,7.0,79,0.00,,,0.00,weatherlink.com 1.10,2013-06-12 01:53:00,
2013-06-11 21:08:00,75.2,69.0,29.91,SSW,197,3.0,4.0,81,0.00,,,0.00,weatherlink.com 1.10,2013-06-12 02:08:00,
2013-06-11 21:23:00,74.7,69.0,29.91,South,181,1.0,5.0,82,0.00,,,0.00,weatherlink.com 1.10,2013-06-12 02:23:00,
2013-06-11 21:38:00,74.0,69.0,29.91,SSW,194,0.0,1.0,83,0.00,,,0.00,weatherlink.com 1.10,2013-06-12 02:38:00,
2013-06-11 21:53:00,73.4,68.0,29.92,South,188,0.0,1.0,84,0.00,,,0.00,weatherlink.com 1.10,2013-06-12 02:53:00,
2013-06-11 22:08:00,72.9,68.0,29.93,SSW,204,0.0,1.0,85,0.00,,,0.00,weatherlink.com 1.10,2013-06-12 03:08:00,
2013-06-11 22:23:00,72.1,67.0,29.93,SSW,204,0.0,0.0,85,0.00,,,0.00,weatherlink.com 1.10,2013-06-12 03:23:00,
2013-06-11 22:38:00,71.6,68.0,29.94,SSW,204,0.0,0.0,87,0.00,,,0.00,weatherlink.com 1.10,2013-06-12 03:38:00,
2013-06-11 22:53:00,71.3,68.0,29.94,SW,219,0.0,1.0,88,0.00,,,0.00,weatherlink.com 1.10,2013-06-12 03:53:00,
2013-06-11 23:08:00,70.8,67.0,29.95,South,190,0.0,0.0,88,0.00,,,0.00,weatherlink.com 1.10,2013-06-12 04:08:00,
2013-06-11 23:23:00,70.2,67.0,29.95,South,190,0.0,0.0,89,0.00,,,0.00,weatherlink.com 1.10,2013-06-12 04:23:00,
2013-06-11 23:38:00,69.7,67.0,29.95,South,190,0.0,0.0,90,0.00,,,0.00,weatherlink.com 1.10,2013-06-12 04:38:00,
2013-06-11 23:53:00,70.0,68.0,29.95,SSE,150,1.0,2.0,92,0.00,,,0.00,weatherlink.com 1.10,2013-06-12 04:53:00,